Simultaneous Nadir Overpasses (SNOs) Predictions

Prediction of SNOs between LANDSAT-8 and NOAA-19 Satellite Orbit:

Table of predicted SNOs for the next 14.0 days since TLE Epoch: 7/14/2018
Index Date (LANDSAT-8) Time (LANDSAT-8) Lat,Lon (LANDSAT-8) SZA (LANDSAT-8 ) Date (NOAA-19) Time (NOAA-19) Lat,Lon (NOAA-19) SZA (NOAA-19 ) Distance(km) Time Diff (sec)
1 07/16/2018 04:02:02 -77.74, -46.20 123.37 07/16/2018 04:01:31 -77.75, -46.06 123.36 3.64 31
2 07/16/2018 04:51:28 77.73, 121.41 56.63 07/16/2018 04:52:33 77.72, 121.32 56.64 2.28 65
3 07/18/2018 09:35:46 77.75, 50.41 57.02 07/18/2018 09:35:08 77.76, 50.55 57.04 3.54 38
4 07/18/2018 10:25:14 -77.72,-142.08 123.01 07/18/2018 10:26:05 -77.72,-141.99 122.99 2.28 51
5 07/20/2018 15:09:31 -77.78, 147.12 122.54 07/20/2018 15:08:40 -77.78, 147.13 122.54 0.38 51
6 07/20/2018 15:58:58 77.72, -45.48 57.40 07/20/2018 15:59:43 77.76, -45.50 57.45 3.86 45
7 07/22/2018 20:43:15 77.78,-116.30 57.90 07/22/2018 20:42:18 77.80,-116.30 57.91 2.10 57
8 07/22/2018 21:32:43 -77.75, 51.22 122.12 07/22/2018 21:33:14 -77.76, 51.18 122.11 1.16 31
9 07/25/2018 02:17:00 -77.81, -19.59 121.60 07/25/2018 02:15:49 -77.82, -19.72 121.61 3.18 71
10 07/25/2018 03:06:27 77.75, 147.78 58.34 07/25/2018 03:06:52 77.76, 147.83 58.36 1.71 25
11 07/27/2018 07:50:43 77.85, 77.15 58.94 07/27/2018 07:49:31 77.97, 76.14 58.99 26.67 72




NCC Satellite Simultaneous Nadir Overpasses (SNOs) Prediction Service
